Weather Roundup
Issued by NWS Springfield, MO

Home | Current Version | Previous Version | Text Only | Print | Product List | Glossary On
Versions: 1 2 3 4 5 6 7 8 9 10 11 12 13 14 15 16 17 18 19 20 21 22 23 24 25 26 27 28 29 30 31 32 33 34 35 36 37 38 39 40 41 42 43 44 45 46 47 48 49 50
000
NZUS99 KSGF 171107
HRRSGF

HOURLY WEATHER
NATIONAL WEATHER SERVICE SPRINGFIELD MO
500 AM CST WED DEC 17 2014

......SGF CWA......

CITY           SKY/WX    TMP DP  RH WIND       PRES   REMARKS
SPRINGFIELD    MOCLDY    26  22  84 CALM      30.29R
JOPLIN         MOCLDY    27  24  89 NE3       30.33S
WEST PLAINS    MOCLDY    25  21  85 NW3       30.28S
ROLLA          MOCLDY    26  20  77 NW7       30.29R WCI  18
OSAGE BEACH    PTCLDY    27  19  74 CALM      30.31F
BRANSON        CLEAR     23  21  93 CALM      30.30R

......SURROUNDING SGF CWA......

CITY           SKY/WX    TMP DP  RH WIND       PRES   REMARKS
CHANUTE        MOCLDY    26  22  84 NE6       30.32F WCI  19
PARSONS        MOCLDY    28  24  85 NE5       30.33F WCI  23
COFFEYVILLE    MOCLDY    29  25  85 NE5       30.32F WCI  24
EMPORIA        CLOUDY    23  21  92 NE6       30.30F WCI  16
GROVE OK       MOCLDY    30  30 100 CALM      30.33S
ROGERS AR      MOCLDY    26  24  92 NE3       30.29S
SILOAM SPRINGS PTCLDY    28  19  69 NE3       30.30S
HARRISON AR    CLEAR     25  23  92 CALM      30.28F
NEAR YELLVILLE PTCLDY    27  21  80 CALM      30.30S

......KANSAS AND MISSOURI......

CITY           SKY/WX    TMP DP  RH WIND       PRES   REMARKS
KANSAS CTY INT MOCLDY    22  17  81 N7        30.33S WCI  13
DOWNTOWN KC    CLOUDY    26  18  71 N7        30.34S WCI  18
COLUMBIA       PTCLDY    25  21  85 NW6       30.32S WCI  18
SEDALIA        MOCLDY    26  21  81 NW8       30.32F WCI  18
ST JOSEPH      PTCLDY    22  16  78 N7        30.36F WCI  13
ST LOUIS       MOCLDY    31  22  69 W8        30.32R WCI  23
SPIRIT OF STL  CLOUDY    30  22  72 W9        30.32S WCI  22
KIRKSVILLE     CLOUDY    24  20  84 N6        30.31S WCI  17
WICHITA        CLOUDY    29  22  75 E8        30.28S WCI  21
TOPEKA         MOCLDY    25  18  74 NW3       30.36R
OLATHE         CLOUDY    26  20  77 N3        30.31F

......TENNESSEE......

CITY           SKY/WX    TMP DP  RH WIND       PRES   REMARKS
MEMPHIS        MOCLDY    32  27  81 N5        30.29F WCI  27
NASHVILLE      CLOUDY    38  34  85 NW6       30.27R WCI  33

......ARKANSAS.......

CITY           SKY/WX    TMP DP  RH WIND       PRES   REMARKS
FAYETTEVILLE   PTCLDY    26  25  96 CALM      30.28S
FT SMITH       PTCLDY    30  26  85 E3        30.30F
LITTLE ROCK    MOCLDY    34  27  75 N3        30.33R

......OKLAHOMA.......

CITY           SKY/WX    TMP DP  RH WIND       PRES   REMARKS
TULSA          CLOUDY    32  27  81 NE8       30.30F WCI  25
PONCA CITY     CLOUDY    34  25  69 E8        30.29F WCI  27
MCALESTER      CLOUDY    33  29  85 CALM      30.28F
OKLAHOMA CITY  CLOUDY    38  28  67 SE7       30.25F WCI  33

......IOWA............

CITY           SKY/WX    TMP DP  RH WIND       PRES   REMARKS
DES MOINES     PTCLDY    15   9  76 NW9       30.34S WCI   3
QUAD CITIES    CLOUDY    22  15  75 W9        30.29S WCI  12

......ILLINOIS........

CITY           SKY/WX    TMP DP  RH WIND       PRES   REMARKS
QUINCY         CLOUDY    25  19  78 NW8       30.31R WCI  16
CHICAGO        CLOUDY    26  20  77 NW12      30.19R WCI  16




USA.gov is the U.S. government's official web portal to all federal, state and local government web resources and services.